TimeCST,TemperatureF,Dew PointF,Humidity,Sea Level PressureIn,VisibilityMPH,Wind Direction,Wind SpeedMPH,Gust SpeedMPH,PrecipitationIn,Events,Conditions,WindDirDegrees,DateUTC
12:53 AM,35.1,32.0,89,30.20,9.0,Calm,Calm,-,N/A,,Clear,0,2012-11-08 06:53:00
1:53 AM,33.8,32.0,93,30.21,9.0,Calm,Calm,-,N/A,,Clear,0,2012-11-08 07:53:00
2:53 AM,35.1,32.0,89,30.22,7.0,Calm,Calm,-,N/A,,Clear,0,2012-11-08 08:53:00
3:53 AM,33.1,30.9,92,30.23,7.0,Calm,Calm,-,N/A,,Clear,0,2012-11-08 09:53:00
4:53 AM,33.1,30.0,89,30.24,7.0,Calm,Calm,-,N/A,,Clear,0,2012-11-08 10:53:00
5:53 AM,32.0,30.0,92,30.25,9.0,Calm,Calm,-,N/A,,Clear,0,2012-11-08 11:53:00
6:53 AM,33.1,30.0,89,30.27,6.0,Calm,Calm,-,N/A,,Clear,0,2012-11-08 12:53:00
7:53 AM,37.0,35.1,93,30.28,10.0,Calm,Calm,-,N/A,,Clear,0,2012-11-08 13:53:00
8:53 AM,45.0,39.0,80,30.29,10.0,Calm,Calm,-,N/A,,Clear,0,2012-11-08 14:53:00
9:53 AM,48.9,39.0,69,30.28,10.0,SE,6.9,-,N/A,,Clear,140,2012-11-08 15:53:00
10:53 AM,52.0,37.9,59,30.27,10.0,SSW,5.8,-,N/A,,Clear,200,2012-11-08 16:53:00
11:53 AM,55.0,37.0,51,30.24,10.0,Variable,4.6,-,N/A,,Clear,0,2012-11-08 17:53:00
12:53 PM,57.0,37.0,47,30.20,10.0,SSW,5.8,-,N/A,,Clear,200,2012-11-08 18:53:00
1:53 PM,59.0,37.0,44,30.18,10.0,South,5.8,-,N/A,,Clear,170,2012-11-08 19:53:00
2:53 PM,60.1,37.0,42,30.17,10.0,South,9.2,-,0.01,,Clear,180,2012-11-08 20:53:00
3:53 PM,59.0,37.0,44,30.17,10.0,SSE,8.1,-,N/A,,Clear,160,2012-11-08 21:53:00
4:53 PM,55.9,37.0,49,30.16,10.0,SSE,5.8,-,N/A,,Clear,160,2012-11-08 22:53:00
5:53 PM,51.1,37.0,59,30.16,10.0,SSE,4.6,-,N/A,,Clear,160,2012-11-08 23:53:00
6:53 PM,50.0,37.0,61,30.17,10.0,South,3.5,-,N/A,,Clear,180,2012-11-09 00:53:00
7:53 PM,48.0,37.0,66,30.16,10.0,Calm,Calm,-,N/A,,Clear,0,2012-11-09 01:53:00
8:53 PM,48.0,37.0,66,30.15,10.0,SSE,4.6,-,N/A,,Clear,160,2012-11-09 02:53:00
9:53 PM,46.9,37.0,68,30.14,10.0,South,3.5,-,N/A,,Clear,170,2012-11-09 03:53:00
10:53 PM,45.0,37.0,74,30.15,10.0,Calm,Calm,-,N/A,,Clear,0,2012-11-09 04:53:00
11:53 PM,43.0,37.0,80,30.15,10.0,Calm,Calm,-,N/A,,Clear,0,2012-11-09 05:53:00